TimeCST,TemperatureF,Dew PointF,Humidity,Sea Level PressureIn,VisibilityMPH,Wind Direction,Wind SpeedMPH,Gust SpeedMPH,PrecipitationIn,Events,Conditions,WindDirDegrees,DateUTC
12:52 AM,19.0,14.0,81,30.05,10.0,South,20.7,-,N/A,,Clear,190,2013-01-07 06:52:00
1:52 AM,19.0,15.1,85,30.01,10.0,South,21.9,-,N/A,,Clear,190,2013-01-07 07:52:00
2:52 AM,21.0,17.1,85,30.03,10.0,South,15.0,-,N/A,,Clear,190,2013-01-07 08:52:00
3:52 AM,23.0,17.1,78,30.01,10.0,South,11.5,-,N/A,,Clear,190,2013-01-07 09:52:00
4:52 AM,23.0,18.0,81,29.98,10.0,South,18.4,-,N/A,,Clear,170,2013-01-07 10:52:00
5:52 AM,25.0,19.0,78,29.96,10.0,SSW,16.1,-,N/A,,Clear,200,2013-01-07 11:52:00
6:52 AM,27.0,19.9,75,29.98,10.0,SW,15.0,-,N/A,,Clear,220,2013-01-07 12:52:00
7:52 AM,27.0,19.9,75,29.99,10.0,SW,9.2,-,N/A,,Clear,220,2013-01-07 13:52:00
8:52 AM,27.0,19.9,75,30.00,10.0,SW,13.8,-,N/A,,Clear,230,2013-01-07 14:52:00
9:52 AM,30.0,21.9,72,30.01,10.0,SW,18.4,-,N/A,,Clear,230,2013-01-07 15:52:00
10:52 AM,30.9,24.1,76,30.03,10.0,West,18.4,-,N/A,,Clear,260,2013-01-07 16:52:00
11:52 AM,30.9,25.0,79,29.99,10.0,WSW,10.4,-,0.01,,Clear,250,2013-01-07 17:52:00
12:52 PM,32.0,25.0,75,29.97,10.0,WSW,9.2,-,0.02,,Clear,240,2013-01-07 18:52:00
1:52 PM,32.0,27.0,82,29.98,10.0,SW,9.2,-,N/A,,Clear,230,2013-01-07 19:52:00
2:52 PM,32.0,27.0,82,29.99,10.0,SW,9.2,-,N/A,,Clear,220,2013-01-07 20:52:00
3:52 PM,32.0,27.0,82,30.00,10.0,SW,6.9,-,N/A,,Clear,220,2013-01-07 21:52:00
4:52 PM,30.0,25.0,82,30.00,10.0,SW,6.9,-,N/A,,Clear,230,2013-01-07 22:52:00
5:52 PM,28.0,24.1,85,30.02,10.0,SW,8.1,-,N/A,,Clear,220,2013-01-07 23:52:00
6:52 PM,26.1,21.9,84,30.02,10.0,SW,5.8,-,N/A,,Clear,230,2013-01-08 00:52:00
7:52 PM,23.0,19.9,88,30.02,9.0,SW,6.9,-,N/A,,Clear,220,2013-01-08 01:52:00
8:52 PM,19.9,18.0,92,30.03,8.0,WSW,8.1,-,N/A,,Clear,250,2013-01-08 02:52:00
9:52 PM,19.9,17.1,89,30.02,9.0,West,4.6,-,N/A,,Clear,260,2013-01-08 03:52:00
10:52 PM,18.0,15.1,88,30.01,6.0,SW,9.2,-,N/A,,Clear,230,2013-01-08 04:52:00
11:52 PM,16.0,15.1,96,30.01,5.0,WSW,5.8,-,N/A,,Clear,250,2013-01-08 05:52:00